Weather History for Weslaco, TX

Change the Weather History Date:

Thursday, December 20, 2012

  Actual Average (KMFE) Record (KMFE)
Temperature  
Mean Temperature 59 °F 61 °F  
Max Temperature 72 °F 71 °F 89 °F (2007)
Min Temperature 46 °F 51 °F 27 °F (1933)
Degree Days  
Heating Degree Days 6 6  
Month to date heating degree days 103  
Since 1 July heating degree days 163  
Cooling Degree Days 0 2  
Month to date cooling degree days 60  
Year to date cooling degree days 4429  
Growing Degree Days 9 (Base 50)    
Moisture  
Dew Point 23 °F    
Average Humidity 29    
Maximum Humidity 90    
Minimum Humidity 11    
Precipitation  
Precipitation 0.00 in 0.04 in 0.36 in (1983)
Month to date precipitation 0.74  
Year to date precipitation 21.75  
Sea Level Pressure  
Sea Level Pressure 30.26 in    
Wind  
Wind Speed 14 mph (NNW)    
Max Wind Speed 26 mph    
Max Gust Speed 38 mph    
Visibility 8 miles    
Events      
T = Trace of Precipitation, MM = Missing Value Source: NWS Daily Summary

Daily Weather History Graph

Daily Weather History Graph

Search for Another Location

Airport:

Trip Planner

Search our weather history database for the weather conditions in past years. The results will help you decide how hot, cold, wet, or windy it might be!

Date:

Astronomy

Dec. 20, 2012 Rise Set
Actual Time 7:14 AM CST 5:44 PM CST
Civil Twilight 6:49 AM CST 6:10 PM CST
Nautical Twilight 6:20 AM CST 6:38 PM CST
Astronomical Twilight 5:52 AM CST 7:07 PM CST
Moon 12:36 PM CST (12/20) 12:33 AM CST (12/20)
Length of Visible Light 11h 20m
Length of Day
10h 30m
First Quarter, 55% of the Moon is Illuminated
Dec 20
First Quarter
Dec 28
Full
Jan 4
Last Quarter
Jan 11
New
Jan 18
First Quarter

Hourly Weather History & Observations

Time (CST) Temp. Windchill Dew Point Humidity Pressure Visibility Wind Dir Wind Speed Gust Speed Precip Events Conditions
12:15 AM 72.7 °F - 68.7 °F 87% 29.79 in 5.0 mi South 12.7 mph 16.1 mph N/A   Scattered Clouds
12:55 AM 72.5 °F - 68.4 °F 87% 29.80 in 5.0 mi South 10.4 mph - N/A   Clear
1:35 AM 71.8 °F - 68.0 °F 88% 29.81 in 5.0 mi South 9.2 mph - N/A   Clear
1:55 AM 71.6 °F - 67.8 °F 88% 29.82 in 4.0 mi SSW 8.1 mph - N/A   Clear
2:15 AM 71.2 °F - 67.5 °F 88% 29.83 in 4.0 mi SSW 4.6 mph - N/A   Clear
2:35 AM 70.9 °F - 67.3 °F 88% 29.83 in 4.0 mi SSW 4.6 mph - N/A   Clear
2:55 AM 70.7 °F - 67.1 °F 88% 29.84 in 4.0 mi SSW 4.6 mph - N/A   Clear
3:15 AM 70.2 °F - 67.1 °F 90% 29.86 in 4.0 mi WSW 4.6 mph - N/A   Clear
3:35 AM 71.1 °F - 67.1 °F 87% 29.91 in 4.0 mi WNW 9.2 mph 25.3 mph N/A   Mostly Cloudy
3:55 AM 71.8 °F - 64.8 °F 78% 29.93 in 7.0 mi NNW 19.6 mph 25.3 mph N/A   Scattered Clouds
4:15 AM 71.8 °F - 55.8 °F 57% 29.95 in 10.0 mi North 21.9 mph 33.4 mph N/A   Scattered Clouds
4:35 AM 70.7 °F - 52.2 °F 52% 29.98 in 7.0 mi North 18.4 mph 29.9 mph N/A   Mostly Cloudy
4:55 AM 70.0 °F - 45.7 °F 42% 30.00 in 7.0 mi North 15.0 mph 25.3 mph N/A   Overcast
5:15 AM 69.1 °F - 37.8 °F 32% 30.01 in 7.0 mi North 19.6 mph 26.5 mph N/A   Mostly Cloudy
5:35 AM 68.4 °F - 31.1 °F 25% 30.04 in 7.0 mi North 19.6 mph 29.9 mph N/A   Overcast
5:55 AM 67.5 °F - 27.3 °F 22% 30.07 in 5.0 mi North 18.4 mph 27.6 mph N/A   Haze
6:15 AM 66.7 °F - 22.8 °F 19% 30.10 in 5.0 mi North 23.0 mph 31.1 mph N/A   Haze
6:35 AM 66.0 °F - 22.1 °F 19% 30.13 in 5.0 mi NNW 16.1 mph 27.6 mph N/A   Haze
6:55 AM 64.8 °F - 19.9 °F 18% 30.15 in 7.0 mi North 17.3 mph 25.3 mph N/A   Overcast
7:15 AM 64.4 °F - 13.6 °F 14% 30.17 in 7.0 mi North 21.9 mph 33.4 mph N/A   Scattered Clouds
7:35 AM 63.7 °F - 13.1 °F 14% 30.21 in 7.0 mi North 20.7 mph 31.1 mph N/A   Scattered Clouds
7:55 AM 63.1 °F - 13.8 °F 15% 30.23 in 7.0 mi North 16.1 mph 29.9 mph N/A   Overcast
8:15 AM 62.8 °F - 14.5 °F 15% 30.26 in 7.0 mi North 21.9 mph 28.8 mph N/A   Mostly Cloudy
8:35 AM 62.6 °F - 14.9 °F 16% 30.28 in 5.0 mi NNW 17.3 mph 28.8 mph N/A   Haze
8:55 AM 63.5 °F - 15.3 °F 15% 30.30 in 5.0 mi NNW 17.3 mph 26.5 mph N/A   Haze
9:15 AM 62.6 °F - 14.2 °F 15% 30.32 in 5.0 mi NNW 20.7 mph 35.7 mph N/A   Haze
9:35 AM 63.3 °F - 14.2 °F 15% 30.34 in 7.0 mi North 24.2 mph 38.0 mph N/A   Scattered Clouds
9:55 AM 63.5 °F - 14.4 °F 15% 30.35 in 7.0 mi NNW 23.0 mph 33.4 mph N/A   Clear
10:15 AM 63.3 °F - 14.5 °F 15% 30.36 in 10.0 mi North 17.3 mph 28.8 mph N/A   Clear
10:35 AM 64.4 °F - 14.2 °F 14% 30.36 in 10.0 mi NNW 23.0 mph 33.4 mph N/A   Clear
10:55 AM 64.0 °F - 12.2 °F 13% 30.38 in 10.0 mi North 20.7 mph 34.5 mph N/A   Clear
11:15 AM 64.6 °F - 12.7 °F 13% 30.39 in 10.0 mi NNW 21.9 mph 34.5 mph N/A   Clear
11:35 AM 63.9 °F - 12.9 °F 14% 30.40 in 10.0 mi NNW 21.9 mph 34.5 mph N/A   Clear
11:55 AM 63.7 °F - 12.4 °F 14% 30.40 in 10.0 mi NNW 21.9 mph 35.7 mph N/A   Clear
12:15 PM 63.9 °F - 13.1 °F 14% 30.39 in 10.0 mi North 21.9 mph 31.1 mph N/A   Clear
12:35 PM 63.7 °F - 10.9 °F 13% 30.37 in 10.0 mi North 20.7 mph 35.7 mph N/A   Clear
12:55 PM 65.1 °F - 12.7 °F 13% 30.37 in 10.0 mi North 20.7 mph 29.9 mph N/A   Clear
1:15 PM 64.4 °F - 10.4 °F 12% 30.37 in 10.0 mi North 19.6 mph 26.5 mph N/A   Clear
1:35 PM 64.6 °F - 10.2 °F 12% 30.36 in 10.0 mi North 20.7 mph 31.1 mph N/A   Clear
1:55 PM 64.6 °F - 9.1 °F 11% 30.35 in 10.0 mi North 17.3 mph 31.1 mph N/A   Clear
2:15 PM 65.1 °F - 9.1 °F 11% 30.35 in 10.0 mi North 26.5 mph 33.4 mph N/A   Clear
2:35 PM 64.0 °F - 8.2 °F 11% 30.34 in 10.0 mi North 18.4 mph 32.2 mph N/A   Clear
2:55 PM 64.2 °F - 8.1 °F 11% 30.35 in 10.0 mi North 23.0 mph 27.6 mph N/A   Clear
3:15 PM 64.4 °F - 8.6 °F 11% 30.35 in 10.0 mi NNW 18.4 mph 29.9 mph N/A   Clear
3:35 PM 63.5 °F - 7.9 °F 11% 30.35 in 10.0 mi North 19.6 mph 34.5 mph N/A   Clear
3:55 PM 63.7 °F - 8.4 °F 11% 30.35 in 10.0 mi NNW 23.0 mph 29.9 mph N/A   Clear
4:15 PM 63.5 °F - 7.7 °F 11% 30.36 in 10.0 mi NNW 19.6 mph 26.5 mph N/A   Clear
4:35 PM 62.6 °F - 7.7 °F 11% 30.36 in 10.0 mi North 16.1 mph 26.5 mph N/A   Clear
4:55 PM 62.2 °F - 8.2 °F 12% 30.37 in 10.0 mi North 17.3 mph 23.0 mph N/A   Clear
5:15 PM 60.8 °F - 7.0 °F 12% 30.37 in 10.0 mi NNW 16.1 mph 26.5 mph N/A   Clear
5:35 PM 59.7 °F - 7.5 °F 13% 30.38 in 10.0 mi NNW 11.5 mph 17.3 mph N/A   Clear
5:55 PM 58.3 °F - 8.2 °F 14% 30.39 in 10.0 mi NNW 9.2 mph - N/A   Clear
6:15 PM 57.4 °F - 7.5 °F 14% 30.39 in 10.0 mi North 9.2 mph - N/A   Clear
6:35 PM 56.3 °F - 7.5 °F 14% 30.41 in 10.0 mi NNW 6.9 mph - N/A   Clear
6:55 PM 55.2 °F - 7.7 °F 15% 30.42 in 10.0 mi North 6.9 mph - N/A   Clear
7:15 PM 52.9 °F - 9.9 °F 18% 30.43 in 10.0 mi NNW 5.8 mph - N/A   Clear
7:35 PM 50.7 °F - 10.4 °F 20% 30.43 in 10.0 mi NNW 5.8 mph - N/A   Clear
7:55 PM 49.8 °F - 10.2 °F 20% 30.44 in 10.0 mi NW 4.6 mph - N/A   Clear
8:15 PM 49.6 °F - 11.1 °F 21% 30.44 in 10.0 mi NNW 3.5 mph - N/A   Clear
8:35 PM 47.7 °F - 12.6 °F 24% 30.45 in 10.0 mi NNW 4.6 mph - N/A   Clear
8:55 PM 47.5 °F - 13.1 °F 25% 30.45 in 10.0 mi NW 5.8 mph - N/A   Clear
9:15 PM 47.8 °F - 13.5 °F 25% 30.46 in 7.0 mi NW 6.9 mph - N/A   Clear
9:35 PM 48.2 °F - 14.0 °F 25% 30.47 in 10.0 mi NW 8.1 mph - N/A   Clear
9:55 PM 47.5 °F - 14.5 °F 27% 30.48 in 10.0 mi NW 5.8 mph - N/A   Clear
10:15 PM 47.7 °F - 14.9 °F 27% 30.48 in 10.0 mi NNW 5.8 mph - N/A   Clear
10:35 PM 46.6 °F - 16.0 °F 29% 30.49 in 10.0 mi NW 5.8 mph - N/A   Clear
10:55 PM 46.6 °F - 17.1 °F 31% 30.49 in 10.0 mi NW 4.6 mph - N/A   Clear
11:15 PM 46.0 °F 43.1 °F 17.8 °F 32% 30.50 in 10.0 mi NW 5.8 mph - N/A   Clear
11:35 PM 46.0 °F 43.9 °F 17.4 °F 32% 30.49 in 10.0 mi NW 4.6 mph - N/A   Clear
11:55 PM 46.0 °F 43.9 °F 17.6 °F 32% 30.50 in 10.0 mi NW 4.6 mph - N/A   Clear